Tracking 17145 objects as of 24-May-2015
HD Live streaming from Space Station

GLOBALSTAR M031

Track GLOBALSTAR M031 now!
10-day predictions
GLOBALSTAR M031 is classified as:


NORAD ID: 25946
Int'l Code: 1999-058D
Perigee: 1,616.8 km
Apogee: 1,618.1 km
Inclination: 52.0 °
Period: 118.4 minutes
Semi major axis: 7988 km
RCS: 2.5697 m2 (large)
Launch date: October 18, 1999
Source: Globalstar (GLOB)
Your satellite tracking list
Your tracking list is empty





NASA's NSSDC Master Catalog

Two Line Element Set (TLE):
1 25946U 99058D   15143.75954411 -.00000161  00000-0 -71628-3 0  9994
2 25946 051.9966 283.4264 0000787 247.9229 252.1318 12.15928844717416

Source of the keplerian elements: AFSPC

N2YO: 326